Regional Weather Roundup
Issued by NWS Sioux Falls, SD

Home | Current Version | Previous Version | Text Only | Print | Product List | Glossary On
Versions: 1 2 3 4 5 6 7 8 9 10 11 12 13 14 15 16 17 18 19 20 21 22 23 24 25 26 27 28 29 30 31 32 33 34 35 36 37 38 39 40 41 42 43 44 45 46 47 48 49 50
000
ASUS43 KFSD 230510
RWRFSD

WEATHER ROUNDUP FOR SE SOUTH DAKOTA/SW MINNESOTA/NW IOWA
NATIONAL WEATHER SERVICE SIOUX FALLS SD
1100 PM CST SUN JAN 22 2017

NOTE: "FAIR" INDICATES FEW OR NO CLOUDS BELOW 12,000 FEET WITH NO
SIGNIFICANT WEATHER AND OR OBSTRUCTIONS TO VISIBILITY.


SDZ038>040-050-052>070-230600-
SOUTHEAST SOUTH DAKOTA

CITY           SKY/WX    TMP DP  RH WIND       PRES   REMARKS
BROOKINGS      CLOUDY    30  28  92 NW10      29.82S WCI  21
CHAMBERLAIN    CLOUDY    31  28  90 W5        29.90R WCI  26
HURON          CLOUDY    31  28  89 NW8       29.87S WCI  23
MADISON        CLOUDY    28  28 100 NW10        N/A  WCI  19
MITCHELL       CLOUDY    32  28  85 NW13      29.90R WCI  22
SIOUX FALLS    CLOUDY    31  29  92 NW8       29.86S WCI  23
WINNER         CLOUDY    25  23  92 W5        29.89S WCI  19
YANKTON        CLOUDY    32  27  80 W8        29.89S WCI  25
$$

MNZ071-072-080-081-089-090-097-098-230600-
SOUTHWEST MINNESOTA

CITY           SKY/WX    TMP DP  RH WIND       PRES   REMARKS
FAIRMONT       CLOUDY    31  30  96 NW9       29.83S FOG     WCI  23
JACKSON        CLOUDY    30  28  93 NW12      29.83S FOG     WCI  21
LUVERNE        CLOUDY    30  27  86 N9        29.85S WCI  22
MARSHALL       CLOUDY    32  29  88 W6        29.83S WCI  26
MONTEVIDEO     CLOUDY    34  34 100 NW5       29.83S WCI  30
PIPESTONE      CLOUDY    30  28  93 N12G18    29.82S WCI  21
REDWOOD FALLS  CLOUDY    33  28  81 NW7       29.82S WCI  27
TRACY          CLOUDY    33  30  91 NW7       29.83S WCI  26
WINDOM         CLOUDY    30  30 100 NW7       29.82S FOG     WCI  23
WORTHINGTON    CLOUDY    30  28  92 NW13      29.84R WCI  20
$$

IAZ001>003-012>014-020>022-031-032-NEZ013-014-SDZ071-230600-
NORTHWEST IOWA

CITY           SKY/WX    TMP DP  RH WIND       PRES   REMARKS
CHEROKEE       CLOUDY    31  30  95 N12       29.86S WCI  22
DENISON        CLOUDY    32  28  86 NW13      29.85S WCI  22
ESTHERVILLE    CLOUDY    30  30 100 NW12      29.82F WCI  20
LE MARS        CLOUDY    32  28  86 NW13      29.89R WCI  22
ORANGE CITY    CLOUDY    30  28  93 NW8       29.86R WCI  23
SHELDON        CLOUDY    30  30 100 NW13      29.84S WCI  20
SIOUX CITY     CLOUDY    33  28  81 NW16      29.89S WCI  23
SPENCER          N/A    N/A N/A N/A MISG      29.84S
STORM LAKE     CLOUDY    30  28  93 NW14G22   29.84S FOG     WCI  20
$$

ABBREVIATIONS USED IN REMARKS
   TC - TEMPERATURE IN CELSIUS
  WCI - WIND CHILL INDEX
   HX - HEAT INDEX
  VSB - VISIBILITY





USA.gov is the U.S. government's official web portal to all federal, state and local government web resources and services.